Midland City, AL

1:55 AM CST on February 27, 2017 (GMT -0600)
Fort Rucker / Ozark

Weather History for KHEY - March, 2014

Change the Weather History Date:

Sunday, March 2, 2014

  Actual Average (KOZR) Record (KOZR)
Temperature  
Mean Temperature 58 °F -  
Max Temperature 75 °F 64 °F 82 °F (1997)
Min Temperature 42 °F 43 °F 29 °F (2009)
Degree Days  
Heating Degree Days 6    
Growing Degree Days 8 (Base 50)    
Moisture  
Dew Point 44 °F    
Average Humidity 78    
Maximum Humidity 100    
Minimum Humidity 26    
Precipitation  
Precipitation 0.00 in - - ()
Sea Level Pressure  
Sea Level Pressure 30.06 in    
Wind  
Wind Speed 2 mph (South)    
Max Wind Speed 12 mph    
Max Gust Speed 17 mph    
Visibility 6 miles    
Events Fog    
Averages and records for this station are not official NWS values.
T = Trace of Precipitation, MM = Missing Value Source: NWS Daily Summary

Daily Weather History Graph

Daily Weather History Graph

Search for Another Location

Airport or City:

Trip Planner

Search our weather history database for the weather conditions in past years. The results will help you decide how hot, cold, wet, or windy it might be!

Date:

Astronomy

Mar. 02, 2014 Rise Set
Actual Time 6:08 AM CST 5:41 PM CST
Civil Twilight 5:43 AM CST 6:05 PM CST
Nautical Twilight 5:15 AM CST 6:34 PM CST
Astronomical Twilight 4:47 AM CST 7:02 PM CST
Moon 6:46 AM CST (3/2) 7:26 PM CST (3/2)
Length of Visible Light 12h 21m
Length of Day
11h 33m
Waxing Crescent, 3% of the Moon is Illuminated
Mar 2
Waxing Crescent
Mar 8
First Quarter
Mar 16
Full
Mar 23
Last Quarter
Mar 30
New

Hourly Weather History & Observations

Time (CST) Temp. Windchill Dew Point Humidity Pressure Visibility Wind Dir Wind Speed Gust Speed Precip Events Conditions
12:53 AM 48.0 °F - 44.1 °F 86% 30.16 in 10.0 mi Calm Calm - N/A   Clear
1:53 AM 46.0 °F - 43.0 °F 89% 30.13 in 10.0 mi Calm Calm - N/A   Clear
2:53 AM 46.0 °F - 43.0 °F 89% 30.12 in 10.0 mi Calm Calm - N/A   Clear
3:42 AM 45.0 °F - 43.0 °F 93% 30.17 in 1.8 mi Calm Calm - N/A   Scattered Clouds
3:53 AM 46.0 °F - 44.1 °F 93% 30.13 in 1.2 mi Calm Calm - N/A   Partly Cloudy
3:56 AM 46.0 °F - 44.1 °F 93% 30.17 in 4.0 mi Calm Calm - N/A   Scattered Clouds
4:06 AM 46.0 °F - 44.1 °F 93% 30.18 in 8.0 mi Calm Calm - N/A   Mostly Cloudy
4:40 AM 43.0 °F - 42.1 °F 97% 30.18 in 1.8 mi Calm Calm - N/A   Overcast
4:53 AM 42.1 °F 40.2 °F 39.9 °F 92% 30.15 in 1.5 mi North 3.5 mph - N/A   Overcast
4:55 AM 42.1 °F 40.2 °F 39.9 °F 92% 30.19 in 3.0 mi North 3.5 mph - N/A   Overcast
5:03 AM 42.1 °F 40.2 °F 41.0 °F 96% 30.18 in 1.2 mi North 3.5 mph - N/A   Overcast
5:11 AM 44.1 °F 41.5 °F 43.0 °F 96% 30.17 in 0.5 mi East 4.6 mph - N/A Fog Fog
5:41 AM 42.1 °F - 41.0 °F 96% 30.19 in 2.5 mi Calm Calm - N/A   Mostly Cloudy
5:49 AM 42.8 °F - 41.0 °F 93% 30.19 in 0.8 mi Calm Calm - N/A   Mist
5:53 AM 43.0 °F - 41.0 °F 93% 30.16 in 0.2 mi Calm Calm - N/A Fog Fog
6:23 AM 43.0 °F - 42.1 °F 97% 30.20 in 3.0 mi Calm Calm - N/A   Mostly Cloudy
6:31 AM 43.0 °F - 42.1 °F 97% 30.20 in 3.0 mi Calm Calm - N/A   Scattered Clouds
6:35 AM 43.0 °F - 42.1 °F 97% 30.20 in 1.5 mi Calm Calm - N/A   Partly Cloudy
6:43 AM 43.0 °F - 43.0 °F 100% 30.20 in 0.5 mi Calm Calm - N/A Fog Fog
6:53 AM 43.0 °F - 43.0 °F 100% 30.17 in 0.2 mi Calm Calm - N/A Fog Fog
7:18 AM 46.0 °F - 45.0 °F 96% 30.20 in 2.0 mi Calm Calm - N/A   Mostly Cloudy
7:26 AM 46.9 °F - 46.9 °F 100% 30.21 in 3.0 mi Calm Calm - N/A   Mostly Cloudy
7:37 AM 48.9 °F - 46.9 °F 93% 30.21 in 7.0 mi NNE 3.5 mph - N/A   Partly Cloudy
7:53 AM 50.0 °F - 48.9 °F 96% 30.18 in 8.0 mi East 3.5 mph - N/A   Clear
8:53 AM 60.1 °F - 50.0 °F 69% 30.18 in 10.0 mi ESE 4.6 mph - N/A   Clear
9:53 AM 66.0 °F - 45.0 °F 47% 30.17 in 10.0 mi South 5.8 mph - N/A   Clear
10:53 AM 70.0 °F - 39.0 °F 32% 29.86 in 10.0 mi Variable 6.9 mph - N/A   Clear
11:53 AM 72.0 °F - 43.0 °F 35% 29.82 in 10.0 mi SE 11.5 mph 17.3 mph N/A   Clear
12:53 PM 73.0 °F - 42.1 °F 33% 29.80 in 10.0 mi South 5.8 mph - N/A   Clear
1:53 PM 75.0 °F - 37.9 °F 26% 29.77 in 10.0 mi Variable 4.6 mph - N/A   Clear
2:53 PM 75.0 °F - 39.0 °F 27% 29.74 in 10.0 mi SSW 10.4 mph - N/A   Clear
3:53 PM 75.0 °F - 41.0 °F 29% 29.73 in 10.0 mi South 8.1 mph - N/A   Clear
4:53 PM 73.0 °F - 42.1 °F 33% 30.01 in 10.0 mi South 4.6 mph - N/A   Clear
5:53 PM 69.1 °F - 44.1 °F 40% 30.01 in 10.0 mi SSW 4.6 mph - N/A   Clear
6:53 PM 64.9 °F - 45.0 °F 48% 30.01 in 10.0 mi SW 4.6 mph - N/A   Clear
7:53 PM 62.1 °F - 46.0 °F 56% 30.00 in 10.0 mi SSW 3.5 mph - N/A   Clear
8:53 PM 59.0 °F - 48.0 °F 67% 29.98 in 10.0 mi South 4.6 mph - N/A   Clear
9:53 PM 57.0 °F - 50.0 °F 77% 29.70 in 10.0 mi South 4.6 mph - N/A   Clear
10:34 PM 55.9 °F - 52.0 °F 87% 30.02 in 10.0 mi Variable 5.8 mph - N/A   Partly Cloudy
10:51 PM 55.4 °F - 53.6 °F 94% 30.01 in 10.0 mi SSW 9.2 mph - N/A   Mostly Cloudy
10:53 PM 55.0 °F - 54.0 °F 96% 29.68 in 10.0 mi SSW 8.1 mph - N/A   Mostly Cloudy
11:53 PM 57.0 °F - 55.0 °F 93% 29.65 in 8.0 mi SSW 6.9 mph - N/A   Overcast